This is the latest recevied weather packets stored in our database for station/object KE8WAY. If no packets are shown the sender has not sent any weather packets the latest 10 day(s).
| Time | Temp. | Humidity | Pressure | Rain* | Wind** | Luminosity | Snow |
|---|---|---|---|---|---|---|---|
| 1778129301 | 8.33° C | 79% | 1012.4 hPa | 0 mm | - | 0 W/m² | - |
| 1778128998 | 8.33° C | 79% | 1012.6 hPa | 0 mm | - | 0 W/m² | - |
| 1778128694 | 8.33° C | 78% | 1012.5 hPa | 0 mm | - | 0 W/m² | - |
| 1778128391 | 8.33° C | 77% | 1012.6 hPa | 0 mm | - | 0 W/m² | - |
| 1778128087 | 8.33° C | 77% | 1012.4 hPa | 0 mm | - | 0 W/m² | - |
| 1778127783 | 8.33° C | 77% | 1012.5 hPa | 0 mm | - | 0 W/m² | - |
| 1778127480 | 8.33° C | 77% | 1012.6 hPa | 0 mm | - | 0 W/m² | - |
| 1778127176 | 8.33° C | 77% | 1012.7 hPa | 0 mm | - | 0 W/m² | - |
| 1778126873 | 8.33° C | 77% | 1012.6 hPa | 0 mm | - | 0 W/m² | - |
| 1778126569 | 8.33° C | 75% | 1012.7 hPa | 0 mm | - | 0 W/m² | - |
| 1778126266 | 8.33° C | 75% | 1012.7 hPa | 0 mm | - | 0 W/m² | - |
| 1778125961 | 8.33° C | 75% | 1012.7 hPa | 0 mm | - | 0 W/m² | - |
| 1778125659 | 8.33° C | 75% | 1012.5 hPa | 0 mm | - | 0 W/m² | - |
| 1778125356 | 8.33° C | 74% | 1012.6 hPa | 0 mm | - | 0 W/m² | - |
| 1778125054 | 8.33° C | 73% | 1012.5 hPa | 0 mm | - | 0 W/m² | - |
| 1778124751 | 8.33° C | 75% | 1012.7 hPa | 0 mm | - | 0 W/m² | - |
| 1778124449 | 8.89° C | 72% | 1012.9 hPa | 0 mm | - | 0 W/m² | - |
| 1778124144 | 8.89° C | 69% | 1012.7 hPa | 0 mm | - | 0 W/m² | - |
| 1778123841 | 9.44° C | 70% | 1012.8 hPa | 0 mm | - | 0 W/m² | - |
| 1778123538 | 9.44° C | 69% | 1012.9 hPa | 0 mm | - | 0 W/m² | - |
| 1778123235 | 9.44° C | 67% | 1012.8 hPa | 0 mm | - | 0 W/m² | - |
| 1778122932 | 9.44° C | 68% | 1012.8 hPa | 0 mm | - | 0 W/m² | - |
| 1778122629 | 10° C | 66% | 1013 hPa | 0 mm | - | 0 W/m² | - |
| 1778122326 | 10° C | 67% | 1013 hPa | 0 mm | - | 0 W/m² | - |
| 1778122024 | 10° C | 64% | 1013 hPa | 0 mm | - | 0 W/m² | - |
* Rain latest hour (hover to see other rain measurements)
** Current wind speed in m/s (hover to see current wind gust speed)